Regional Weather Roundup
Issued by NWS

Current Version | Previous Version | Graphics & Text | Print | Product List | Glossary On
Versions: 1 2 3 4 5 6 7 8 9 10 11 12 13 14 15 16 17 18 19 20 21 22 23 24 25 26 27 28 29 30 31 32 33 34 35 36 37 38 39 40 41 42 43 44 45 46 47 48 49 50
000
ASHW40 PHFO 031243
RWRHI

WEATHER ROUNDUP FOR HAWAII
NATIONAL WEATHER SERVICE HONOLULU HI
200 AM HST THU SEP 03 2015

THIS IS AN AUTOMATED REPORT THAT HAS NOT BEEN QUALITY CONTROLLED.

NOTE..."FAIR" INDICATES FEW OR NO CLOUDS BELOW 12,000 FEET WITH NO
SIGNIFICANT WEATHER AND/OR OBSTRUCTIONS TO VISIBILITY.

* - THESE SITES REPORT LIMITED FIELDS

HIZ001>004-031300-
KAUAI-NIIHAU-

CITY           SKY/WX    TMP DP  RH WIND       PRES   REMARKS
LIHUE APT      PTCLDY    76  73  91 W7        29.86F
PORT ALLEN*    NOT AVBL
POIPU*           N/A     77 N/A N/A N2          N/A
PRINCEVILLE*     N/A     75 N/A N/A MISG        N/A
KOKOLE POINT*  NOT AVBL
MOLOAA DAIRY*    N/A     79  75  89 S3G10       N/A
WAIMEA HTS*      N/A     79  72  78 NE2G8       N/A
PUU OPAE*        N/A     70  66  88 E5G10       N/A
PUU LUA*       NOT AVBL
MAKAHA RIDGE*    N/A     73  66  78 E2          N/A
$$

HIZ005>011-031300-
OAHU-

CITY           SKY/WX    TMP DP  RH WIND       PRES   REMARKS
HONOLULU       MOCLDY    81  78  91 SE6       29.86F
KALAELOA       CLOUDY    77  75  93 CALM      29.88S
KANEOHE MCB    CLOUDY    80  75  84 CALM      29.84S
WHEELER FIELD  MOCLDY    75  73  94 SE3       29.87F
BELLOWS*         N/A    N/A N/A N/A SW3         N/A
KAHUKU*          N/A    N/A N/A N/A E1          N/A
WHEELER*       NOT AVBL
WAIANAE HARBOR NOT AVBL
DILLINGHAM*      N/A     73  72  94 MISG        N/A
KAHUKU TRN*      N/A     88  84  89 S3          N/A  HX 112
KAWAILOA*        N/A     75  72  88 S3G9        N/A
KII*             N/A     77  75  94 CALM        N/A
MAKUA RANGE*     N/A     77  72  83 SE3         N/A
OAHU FOREST NW   N/A     72  72 100 CALM        N/A
SCHOFIELD BRK*   N/A     73  72  94 MISG        N/A
SCHOFIELD S*   NOT AVBL
WAIANAE VLY*     N/A     75  72  88 MISG        N/A
KUAOKALA*        N/A     77  72  83 S3          N/A
HONOULIUULI*   NOT AVBL
MOKUOLOE IS*     N/A    N/A N/A N/A MISG        N/A
PALEHUA*         N/A     72  72 100 SE6G14      N/A
WAIAWA PHB*    NOT AVBL
$$

HIZ012>013-031300-
MOLOKAI-

CITY           SKY/WX    TMP DP  RH WIND       PRES   REMARKS
MOLOKAI AIRPT  CLOUDY    75  68  78 NE6       29.90S
KALAUPAPA      NOT AVBL
MAKAPULAPAI*     N/A     73  72  94 SE3         N/A
MOLOKAI 1*       N/A     82  75  78 SE3G9       N/A
PUU ALII*        N/A     63  61  93 SE1         N/A
$$

HIZ016-031300-
KAHOOLAWE-

CITY           SKY/WX    TMP DP  RH WIND       PRES   REMARKS
KAHOOLAWE*       N/A     75 N/A N/A E12G23      N/A
HAKIOAWA*        N/A     75  74  97 MISG      30.33R
HONOKANAIA*      N/A     82  75  78 E7        29.82F
KANELOA*         N/A     79  75  89 SE6       29.96F
KEALIALALO*      N/A     77  73  88 SE10G18     N/A
LUA MAKIKA*    NOT AVBL
$$

HIZ014>015-031300-
LANAI-

CITY           SKY/WX    TMP DP  RH WIND       PRES   REMARKS
LANAI CITY     CLOUDY    73  73 100 E9        29.95S
LANAI 1*         N/A     73  70  88 E8          N/A
$$

HIZ017>028-031300-
MAUI-

CITY           SKY/WX    TMP DP  RH WIND       PRES   REMARKS
KAHULUI        CLOUDY    78  72  81 CALM      29.89S
KAPALUA-W MAUI NOT AVBL
HANA AIRPORT   LGT RAIN  75  75 100 SE3       29.91F
HANA*            N/A     73 N/A N/A S2          N/A
HALEAKALA SUMM   N/A     46  46 100 SE18        N/A
MAALAEA BAY*   NOT AVBL
HALEAKALA*     NOT AVBL
KAUPO GAP*       N/A     66  64  94 N12         N/A
KULA 1*          N/A     55  54  96 NE2         N/A
$$

HIZ023>026-031300-
BIG ISLAND OF HAWAII COAST AND LOWER SLOPES-

CITY           SKY/WX    TMP DP  RH WIND       PRES   REMARKS
KAILUA KONA    PTCLDY    78  73  84 NE7       29.86F
HILO           PTCLDY    77  73  87 SW3       29.89F
HONOKAA*       NOT AVBL
KAWAIHAE MWT*    N/A     81 N/A N/A E6          N/A
KAWAIHAE*        N/A     82 N/A N/A SE3         N/A
SOUTH POINT*     N/A     73 N/A N/A NE3         N/A
UPOLU AIRPORT*   N/A    N/A N/A N/A S1          N/A
KAMUELA*       NOT AVBL
HAKALAU*         N/A     56  51  85 SW6         N/A
KALOKO-HONOKO*   N/A     77  72  83 VRB2      29.85F
PALI 2*          N/A     68  66  94 N5          N/A
KEALAKOMO*     NOT AVBL
KAUPULEHU*       N/A     73  68  83 SE7         N/A
KAPAPALA*        N/A     68  67  96 N3          N/A
LOWER KAHUKU*    N/A     68 N/A N/A N1G9        N/A
PUHE CS*         N/A     79  72  78 E3          N/A
PUHO CS*         N/A     72  72 100 E2          N/A
PTA KEAMUKU*     N/A     64  61  88 CALM        N/A
WAIKOLOA*        N/A     73  70  88 SE3         N/A
$$

HIZ027>028-031300-
BIG ISLAND OF HAWAII INTERIOR AND SUMMMITS-

CITY           SKY/WX    TMP DP  RH WIND       PRES   REMARKS
BRADSHAW FIELD MOCLDY    55  55  99 W2        30.26F
MK VISITOR CEN   N/A     52  41  66 NE9         N/A
MAUNA KEA*       N/A     37  30  75 CALM        N/A
MAUNA LOA*       N/A     45  36  70 MISG        N/A
MAUNA LOA 1*   NOT AVBL
PTA KIPUKA*      N/A     57  57 100 E3          N/A
PTA RANGE 17*    N/A     57  57 100 N2          N/A
PTA WEST*        N/A     61  59  94 SE6         N/A
NENE CABIN*      N/A     55  48  76 NE3         N/A
AHUMOA*          N/A     54  51  90 NE2         N/A
PTA PORTABLE*  NOT AVBL
PUU MALI*        N/A     55  52  88 E3G9        N/A
$$

HIC003-031300-
NORTHWEST ISLANDS-

CITY           SKY/WX    TMP DP  RH WIND       PRES   REMARKS
MIDWAY ISLAND  CLEAR     81  77  89 E8        29.92F
MIDWAY NOS*    NOT AVBL
FRENCH FRIGATE NOT AVBL
$$

PHZ110>124-180-031300-
BUOY REPORTS

STATION/POSITION TIME  TEMP    WIND        PRES    WAVE   SWELL
                       AIR SEA DIR/SP/G            HT/PER HT/DIR
                 (UTC) (F)     (DEG/KT/KT) (MB)    (FT/S) (FT/D)
BUOY 51001       1155   81 83  270/ 10/ 16 1009.5
BUOY 51101       1200   81 83  260/ 10/ 14 1009.0F  10/11  10/ 60
BUOY 51100       NOT AVBL
BUOY 51002       1200   83 84  140/  6/ 10 1010.9F   8/15   8/120
BUOY 51003       1200   83 85  140/  6/  8 1010.6F   6/14   7/110
BUOY 51004       1055   81 84   50/ 10/ 12 1011.1F  11/15  11/ 90
BARBERS PT BUOY  NOT AVBL
WAIMEA BAY BUOY  1200      83                N/A     6/12   5/350
KAILUA BAY BUOY  1200      83                N/A     8/11   5/ 20
LANAI BUOY       NOT AVBL
BARBERS PT 2     1200      84                N/A     4/11   3/280
PAUWELA MAUI     1200      82                N/A     9/11   7/ 70
HILO             NOT AVBL
KANEOHE BAY BUOY 1200      83                N/A     9/10   5
HANALEI KAUAI    1200      83                N/A    10/14   8/ 90
KAHULUI HARBOR   1200          260/  3/  4 1012.0F
HONOLULU HARBOR  1200          130/  4/  6 1011.3F
KILO NALU        NOT AVBL
HILO HARBOR      1200          200/  4/  5 1011.8F
MOKUOLOE         1200   79 87  240/  2/  2 1011.2S
NAWILIWILI       1200   76     280/  3/  4 1011.1R
WHOTS BUOY       NOT AVBL
BUOY 51028       NOT AVBL
$$

......................KEY........................................
  SKY/WX - SKY CONDITIONS/PRESENT WEATHER
  TMP    - TEMPERATURE IN FAHRENHEIT
  DWPT   - DEWPOINT IN FAHRENHEIT
  RH     - RELATIVE HUMIDITY IN PERCENT
  WIND   - DIRECTION AND SPEED /MPH FOR ISLANDS...KTS FOR BUOYS/
  PRES   - MEAN SEA LEVEL PRESSURE IN INCHES OF HG
  VSB    - VISIBILITY IN MILES
  HX     - HEAT INDEX
  WCI    - WIND CHILL INDEX
  VRB    - VARIABLE WIND DIRECTION
  N/A    - NOT AVAILABLE


USA.gov is the U.S. government's official web portal to all federal, state and local government web resources and services.